BIKFBGBW

Guest
Details From BIKF - Keflavik Nas
To BGBW - Narsarsuaq
Flight Number -
Tags Generated
Created
Modified
Stats Distance 650 nm / 1,204 km
Max Altitude 0 ft / 0 m
Waypoints 3
Social Downloads 1
Likes 0
Share VATSIM

Download

Looking for another format? Having issues loading an existing format? Contact us
Advertisement - Login to hide

Notes

Generated

Route

BIKF NA BGBW

ID Type Via Altitude Latitude Longitude Leg Dist Tot Dist Heading (true) Name
O BIKF APT - 0 ft / 0 m 63.96448˚ -22.60545˚ - 0 nm - -
NA NDB - 0 ft / 0 m 61.17074˚ -45.41295˚ 649 nm 649 nm 265° / 245° NARSARSUAQ NDB
O BGBW APT - 0 ft / 0 m 61.15435˚ -45.43692˚ 1 nm 650 nm 215° / 215° -

Altitude Profile

Advertisement - Login to hide

Weather


0- 5 10 15 20 25 30 35+ Temperature / ° C

Clouds and Precipitation
Forecast for 2018-05-20 18:00 UTC. Updated 42 minutes ago

Ground ~20,000 ft ~40,000 ft Winds

BIKF

Details ICAO BIKF (KEF)
Name Keflavik
Region Iceland
Timezone Atlantic/Reykjavik (UTC+0.0)
Stats Elevation 170 ft / 52 m (AMSL)
Location 63.981612° -22.614563°
Runways 2
Magnetic Variation 13.953° W

METAR

BIKF 201600Z 23025KT 9999 VCSH FEW015CB SCT026 BKN032 05/02 Q0991

Decode

TAF

TAF BIKF 201400Z 2015/2115 22022G32KT 9999 SHRA BKN012CB TX07/2015Z TN03/2105Z BECMG 2017/2020 24015KT BECMG 2021/2024 36013KT BECMG 2105/2107 NSW SCT040 BECMG 2113/2115 23008KT

Decode

Departure Runways

ID Width Length Bearing (true) Bearing (mag) Surface Threshold Offset Overrun Length
02 197 ft / 60 m 9,997 ft / 3,047 m 0.02° 13.97° Asphalt 0 ft / 0 m 492 ft / 150 m
11 197 ft / 60 m 10,022 ft / 3,055 m 89.97° 103.92° Asphalt 0 ft / 0 m 246 ft / 75 m
20 197 ft / 60 m 9,997 ft / 3,047 m 180.02° 193.97° Asphalt 0 ft / 0 m 98 ft / 30 m
29 197 ft / 60 m 10,022 ft / 3,055 m 270.02° 283.97° Asphalt 0 ft / 0 m 197 ft / 60 m

BGBW

Details ICAO BGBW (UAK)
Name Narsarsuaq
Region Greenland
Timezone America/Godthab (UTC-2.0)
Stats Elevation 112 ft / 34 m (AMSL)
Location 61.160516° -45.425976°
Runways 1
Magnetic Variation 22.776° W

METAR

BGBW 201550Z 22012KT 9999 FEW030 SCT040 BKN056 03/M06 Q0999

Decode

TAF

Not found

Destination Runways

ID Width Length Bearing (true) Bearing (mag) Surface Threshold Offset Overrun Length
07 148 ft / 45 m 5,921 ft / 1,805 m 40.57° 63.35° Concrete 0 ft / 0 m 0 ft / 0 m
25 148 ft / 45 m 5,921 ft / 1,805 m 220.58° 243.36° Concrete 0 ft / 0 m 279 ft / 85 m

Popular Alternatives